Regional Weather Roundup
Issued by NWS Spokane, WA

Home | Current Version | Previous Version | Text Only | Print | Product List | Glossary On
Versions: 1 2 3 4 5 6 7 8 9 10 11 12 13 14 15 16 17 18 19 20 21 22 23 24 25 26 27 28 29 30 31 32 33 34 35 36 37 38 39 40 41 42 43 44 45 46 47 48 49 50
361
NZUS01 KOTX 280757
RWROTX

Eastern Washington/Northern Idaho Roundup
National Weather Service, Spokane WA
100 AM PDT WED JUN 28 2017

Note: "fair" indicated few or no clouds below 12,000 feet with no
significant weather and/or obstructions to visibility.

...Northeast Washington and Northern Idaho Panhandle...

CITY           SKY/WX    TMP DP  RH WIND       PRES   REMARKS
Spokane Intl   MOCLDY    63  42  46 VRB3      29.80F
Spokane Downto MOCLDY    60  48  64 NE5       29.80S
Deer Park      PTCLDY    52  43  71 SE3       29.79F

...Southeast Washington and southern Idaho Panhandle...

CITY           SKY/WX    TMP DP  RH WIND       PRES   REMARKS
Walla Walla    PTCLDY    65  50  58 S9        29.84S
Pullman/Moscow PTCLDY    56  45  66 CALM      29.85F
Lowell           N/A     59  51  75 CALM      29.83S

...Columbia Basin...

CITY           SKY/WX    TMP DP  RH WIND       PRES   REMARKS
Ephrata        PTCLDY    69  37  30 NW12      29.75S
Moses Lake     PTCLDY    66  43  43 W7        29.77S
Pasco          CLEAR     64  51  62 SW5       29.79S
Hermiston      CLEAR     66  44  45 SW16      29.80F
Pendleton      CLEAR     63  46  54 SW8       29.85S

...East Slopes Cascades...

CITY           SKY/WX    TMP DP  RH WIND       PRES   REMARKS
The Dalles     CLEAR     70  49  47 W10G25    29.86R
Yakima         CLEAR     68  43  40 NW8       29.83F
Ellensburg     PTCLDY    62  43  49 NW22G31   29.85F
Omak           CLEAR     62  42  47 NW6       29.76F

...Southern British Columbia...

CITY           SKY/WX    TMP DP  RH WIND       PRES   REMARKS

...Western Montana...

CITY           SKY/WX    TMP DP  RH WIND       PRES   REMARKS
Missoula       MOCLDY    58  43  57 SW5       29.83F

...Neighboring Cities...

CITY           SKY/WX    TMP DP  RH WIND       PRES   REMARKS
Seattle        PTCLDY    57  52  83 S6        29.99R
Portland       PTCLDY    58  50  75 NW7       30.00S
Boise          PTCLDY    69  45  41 SE12      29.79S
Great Falls    CLEAR     53  46  77 SW10      29.77S



USA.gov is the U.S. government's official web portal to all federal, state and local government web resources and services.